Time,TemperatureF,DewpointF,PressureIn,WindDirection,WindDirectionDegrees,WindSpeedMPH,WindSpeedGustMPH,Humidity,HourlyPrecipIn,Conditions,Clouds,dailyrainin,SoftwareType,DateUTC
2013-11-16 00:00:00,49.0,44.7,30.02,NNE,17,7.0,13.0,85,0.00,RA,,0.00,WeatherDisplay:10.37,2013-11-15 23:00:00,
2013-11-16 00:10:00,48.9,44.9,30.01,NNE,23,10.0,15.0,86,0.01,RA,,0.01,WeatherDisplay:10.37,2013-11-15 23:10:00,
2013-11-16 00:15:00,48.8,44.8,30.01,NNE,24,8.0,16.0,86,0.01,RA,,0.02,WeatherDisplay:10.37,2013-11-15 23:15:00,
2013-11-16 00:20:00,48.6,44.6,30.01,NE,38,9.0,17.0,86,0.02,RA,,0.02,WeatherDisplay:10.37,2013-11-15 23:20:00,
2013-11-16 00:25:00,48.5,44.5,30.01,NE,41,9.0,17.0,86,0.00,RA,,0.03,WeatherDisplay:10.37,2013-11-15 23:25:00,
2013-11-16 00:30:00,48.2,44.2,30.01,NE,39,10.0,18.0,86,0.00,RA,,0.04,WeatherDisplay:10.37,2013-11-15 23:30:00,
2013-11-16 00:35:00,48.0,44.0,30.01,NE,41,10.0,17.0,86,0.02,RA,,0.05,WeatherDisplay:10.37,2013-11-15 23:35:00,
2013-11-16 00:40:00,47.8,43.8,30.00,NE,34,10.0,17.0,86,0.00,RA,,0.06,WeatherDisplay:10.37,2013-11-15 23:40:00,
2013-11-16 00:45:00,47.7,43.7,30.00,NE,35,12.0,20.0,86,0.03,RA,,0.09,WeatherDisplay:10.37,2013-11-15 23:45:00,
2013-11-16 00:50:00,47.6,43.6,30.00,NE,35,10.0,17.0,86,0.04,RA,,0.10,WeatherDisplay:10.37,2013-11-15 23:50:00,
2013-11-16 00:55:00,47.5,43.5,29.99,NNE,33,9.0,22.0,86,0.01,RA,,0.13,WeatherDisplay:10.37,2013-11-15 23:55:00,
2013-11-16 01:00:00,47.4,43.4,29.99,NNE,31,10.0,20.0,86,0.00,RA,,0.14,WeatherDisplay:10.37,2013-11-16 00:00:00,
2013-11-16 01:05:00,47.3,43.3,29.99,NNE,28,13.0,18.0,86,0.01,RA,,0.16,WeatherDisplay:10.37,2013-11-16 00:05:00,
2013-11-16 01:10:00,47.2,43.2,29.99,NNE,26,12.0,20.0,86,0.01,RA,,0.17,WeatherDisplay:10.37,2013-11-16 00:10:00,
2013-11-16 01:15:00,47.2,43.2,29.99,NNE,22,8.0,19.0,86,0.02,RA,,0.17,WeatherDisplay:10.37,2013-11-16 00:15:00,
2013-11-16 01:20:00,47.0,43.0,29.99,North,9,6.0,14.0,86,0.00,RA,,0.18,WeatherDisplay:10.37,2013-11-16 00:20:00,
2013-11-16 01:25:00,46.9,42.9,29.99,North,4,6.0,14.0,86,0.00,RA,,0.19,WeatherDisplay:10.37,2013-11-16 00:25:00,
2013-11-16 01:30:00,46.8,43.1,29.98,North,6,6.0,13.0,87,0.01,RA,,0.19,WeatherDisplay:10.37,2013-11-16 00:30:00,
2013-11-16 01:35:00,46.8,43.1,29.98,North,11,6.0,10.0,87,0.00,,,0.19,WeatherDisplay:10.37,2013-11-16 00:35:00,
2013-11-16 01:40:00,46.7,43.1,29.97,NNE,12,5.0,9.0,87,0.00,,,0.19,WeatherDisplay:10.37,2013-11-16 00:40:00,
2013-11-16 01:45:00,46.7,43.1,29.97,North,2,7.0,12.0,87,0.00,,,0.19,WeatherDisplay:10.37,2013-11-16 00:45:00,
2013-11-16 01:50:00,46.8,43.1,29.97,North,356,7.0,13.0,87,0.00,RA,,0.20,WeatherDisplay:10.37,2013-11-16 00:50:00,
2013-11-16 01:55:00,47.0,43.3,29.96,North,358,7.0,10.0,87,0.01,RA,,0.20,WeatherDisplay:10.37,2013-11-16 00:55:00,
2013-11-16 02:00:00,47.2,43.2,29.97,North,350,5.0,12.0,86,0.00,,,0.20,WeatherDisplay:10.37,2013-11-16 01:00:00,
2013-11-16 02:05:00,47.5,43.5,29.96,NNW,348,7.0,12.0,86,0.00,,,0.20,WeatherDisplay:10.37,2013-11-16 01:05:00,
2013-11-16 02:10:00,47.7,43.4,29.96,North,354,5.0,9.0,85,0.00,,,0.20,WeatherDisplay:10.37,2013-11-16 01:10:00,
2013-11-16 02:15:00,47.9,43.6,29.96,North,359,7.0,11.0,85,0.00,,,0.20,WeatherDisplay:10.37,2013-11-16 01:15:00,
2013-11-16 02:20:00,48.0,43.4,29.95,North,358,5.0,12.0,84,0.00,,,0.20,WeatherDisplay:10.37,2013-11-16 01:20:00,
2013-11-16 02:25:00,48.1,43.8,29.95,NNW,347,3.0,12.0,85,0.00,,,0.20,WeatherDisplay:10.37,2013-11-16 01:25:00,
2013-11-16 02:30:00,48.3,44.0,29.96,NW,323,0.0,12.0,85,0.00,,,0.20,WeatherDisplay:10.37,2013-11-16 01:30:00,
2013-11-16 02:35:00,48.3,43.7,29.95,NW,319,3.0,7.0,84,0.00,,,0.20,WeatherDisplay:10.37,2013-11-16 01:35:00,
2013-11-16 02:40:00,48.5,43.8,29.96,NW,324,2.0,8.0,84,0.00,,,0.20,WeatherDisplay:10.37,2013-11-16 01:40:00,
2013-11-16 02:45:00,48.6,44.0,29.96,NW,311,0.0,8.0,84,0.00,,,0.20,WeatherDisplay:10.37,2013-11-16 01:45:00,
2013-11-16 02:50:00,48.6,44.0,29.96,NW,315,1.0,4.0,84,0.00,,,0.20,WeatherDisplay:10.37,2013-11-16 01:50:00,
2013-11-16 02:55:00,48.7,44.0,29.96,NW,315,0.0,0.0,84,0.00,,,0.20,WeatherDisplay:10.37,2013-11-16 01:55:00,
2013-11-16 03:00:00,48.7,44.1,29.96,NW,315,0.0,0.0,84,0.00,,,0.20,WeatherDisplay:10.37,2013-11-16 02:00:00,
2013-11-16 03:05:00,48.9,44.3,29.95,WNW,295,3.0,6.0,84,0.00,,,0.20,WeatherDisplay:10.37,2013-11-16 02:05:00,
2013-11-16 03:10:00,49.2,44.6,29.94,WSW,256,2.0,6.0,84,0.00,,,0.20,WeatherDisplay:10.37,2013-11-16 02:10:00,
2013-11-16 03:15:00,49.3,44.7,29.94,WSW,241,0.0,4.0,84,0.00,,,0.20,WeatherDisplay:10.37,2013-11-16 02:15:00,
2013-11-16 03:20:00,49.4,44.5,29.93,WSW,242,2.0,5.0,83,0.00,,,0.20,WeatherDisplay:10.37,2013-11-16 02:20:00,
2013-11-16 03:25:00,49.6,44.6,29.93,West,261,1.0,1.0,83,0.00,,,0.20,Wunderground v.1.15,2013-11-16 02:25:00,
2013-11-16 03:35:00,50.0,45.1,29.92,North,358,5.0,9.0,83,0.00,,,0.20,WeatherDisplay:10.37,2013-11-16 02:35:00,
2013-11-16 03:40:00,50.2,45.3,29.92,NNW,339,5.0,12.0,83,0.00,,,0.20,WeatherDisplay:10.37,2013-11-16 02:40:00,
2013-11-16 03:45:00,50.5,45.5,29.91,NNW,346,3.0,9.0,83,0.00,,,0.20,WeatherDisplay:10.37,2013-11-16 02:45:00,
2013-11-16 03:50:00,50.4,45.4,29.91,North,0,6.0,9.0,83,0.00,,,0.20,WeatherDisplay:10.37,2013-11-16 02:50:00,
2013-11-16 03:55:00,50.3,45.4,29.91,North,1,6.0,12.0,83,0.01,RA,,0.20,WeatherDisplay:10.37,2013-11-16 02:55:00,
2013-11-16 04:00:00,50.5,45.8,29.90,North,1,9.0,18.0,84,0.00,RA,,0.20,WeatherDisplay:10.37,2013-11-16 03:00:00,
2013-11-16 04:05:00,51.0,46.3,29.91,North,9,8.0,16.0,84,0.00,,,0.20,WeatherDisplay:10.37,2013-11-16 03:05:00,
2013-11-16 04:10:00,51.0,46.6,29.90,North,8,8.0,14.0,85,0.00,,,0.20,WeatherDisplay:10.37,2013-11-16 03:10:00,
2013-11-16 04:15:00,51.4,47.7,29.90,North,5,12.0,26.0,87,0.01,RA,,0.23,WeatherDisplay:10.37,2013-11-16 03:15:00,
2013-11-16 04:20:00,51.7,48.0,29.90,NNE,27,14.0,27.0,87,0.02,RA,,0.27,WeatherDisplay:10.37,2013-11-16 03:20:00,
2013-11-16 04:25:00,51.7,47.9,29.90,NE,40,9.0,18.0,87,0.05,RA,,0.28,WeatherDisplay:10.37,2013-11-16 03:25:00,
2013-11-16 04:30:00,51.5,48.1,29.90,NNE,31,8.0,14.0,88,0.01,RA,,0.29,WeatherDisplay:10.37,2013-11-16 03:30:00,
2013-11-16 04:35:00,51.6,48.1,29.91,NE,38,6.0,12.0,88,0.02,RA,,0.30,WeatherDisplay:10.37,2013-11-16 03:35:00,
2013-11-16 04:40:00,51.5,48.1,29.91,NE,40,6.0,8.0,88,0.01,RA,,0.30,WeatherDisplay:10.37,2013-11-16 03:40:00,
2013-11-16 04:45:00,51.5,48.1,29.90,NE,43,1.0,7.0,88,0.02,RA,,0.31,WeatherDisplay:10.37,2013-11-16 03:45:00,
2013-11-16 04:50:00,51.5,48.1,29.90,NE,49,0.0,0.0,88,0.00,RA,,0.31,WeatherDisplay:10.37,2013-11-16 03:50:00,
2013-11-16 04:55:00,51.4,48.0,29.89,NE,49,0.0,0.0,88,0.01,RA,,0.32,WeatherDisplay:10.37,2013-11-16 03:55:00,
2013-11-16 05:00:00,51.4,48.0,29.88,NE,49,0.0,0.0,88,0.00,RA,,0.33,WeatherDisplay:10.37,2013-11-16 04:00:00,
2013-11-16 05:05:00,51.3,48.2,29.88,NNE,26,1.0,7.0,89,0.00,RA,,0.33,WeatherDisplay:10.37,2013-11-16 04:05:00,
2013-11-16 05:10:00,51.2,48.1,29.88,West,273,2.0,5.0,89,0.00,,,0.33,WeatherDisplay:10.37,2013-11-16 04:10:00,
2013-11-16 05:15:00,51.0,48.8,29.87,West,271,7.0,9.0,92,0.00,,,0.33,WeatherDisplay:10.37,2013-11-16 04:15:00,
2013-11-16 05:20:00,51.1,48.3,29.87,West,275,3.0,8.0,90,0.00,,,0.33,WeatherDisplay:10.37,2013-11-16 04:20:00,
2013-11-16 05:25:00,51.2,47.8,29.87,West,281,1.0,7.0,88,0.00,RA,,0.34,WeatherDisplay:10.37,2013-11-16 04:25:00,
2013-11-16 05:30:00,51.2,47.8,29.86,WNW,287,3.0,8.0,88,0.00,RA,,0.35,WeatherDisplay:10.37,2013-11-16 04:30:00,
2013-11-16 05:35:00,51.2,47.8,29.86,WNW,283,3.0,9.0,88,0.01,RA,,0.36,WeatherDisplay:10.37,2013-11-16 04:35:00,
2013-11-16 05:40:00,51.2,47.8,29.86,West,280,2.0,7.0,88,0.02,RA,,0.37,WeatherDisplay:10.37,2013-11-16 04:40:00,
2013-11-16 05:45:00,51.2,47.8,29.85,WNW,287,5.0,7.0,88,0.02,RA,,0.39,WeatherDisplay:10.37,2013-11-16 04:45:00,
2013-11-16 05:50:00,51.2,47.8,29.85,WNW,291,6.0,9.0,88,0.01,RA,,0.40,WeatherDisplay:10.37,2013-11-16 04:50:00,
2013-11-16 05:55:00,51.3,48.2,29.85,WNW,288,5.0,9.0,89,0.02,RA,,0.41,WeatherDisplay:10.37,2013-11-16 04:55:00,
2013-11-16 06:00:00,51.4,48.3,29.84,WNW,300,2.0,6.0,89,0.00,RA,,0.42,WeatherDisplay:10.37,2013-11-16 05:00:00,
2013-11-16 06:05:00,51.4,48.3,29.84,NW,309,2.0,6.0,89,0.00,RA,,0.43,WeatherDisplay:10.37,2013-11-16 05:05:00,
2013-11-16 06:10:00,51.5,48.4,29.84,NW,314,1.0,7.0,89,0.01,RA,,0.43,WeatherDisplay:10.37,2013-11-16 05:10:00,
2013-11-16 06:15:00,51.7,48.8,29.84,NW,321,2.0,7.0,90,0.01,RA,,0.43,WeatherDisplay:10.37,2013-11-16 05:15:00,
2013-11-16 06:20:00,51.8,49.0,29.83,NW,318,7.0,9.0,90,0.00,RA,,0.44,WeatherDisplay:10.37,2013-11-16 05:20:00,
2013-11-16 06:25:00,51.9,49.1,29.83,NW,318,2.0,8.0,90,0.01,RA,,0.44,WeatherDisplay:10.37,2013-11-16 05:25:00,
2013-11-16 06:30:00,52.1,49.2,29.83,NNW,332,0.0,8.0,90,0.00,,,0.44,WeatherDisplay:10.37,2013-11-16 05:30:00,
2013-11-16 06:35:00,52.1,49.3,29.83,NNW,343,0.0,4.0,90,0.00,,,0.44,WeatherDisplay:10.37,2013-11-16 05:35:00,
2013-11-16 06:45:00,52.3,49.5,29.82,NNW,343,1.0,5.0,90,0.00,,,0.44,WeatherDisplay:10.37,2013-11-16 05:45:00,
2013-11-16 06:50:00,52.5,49.7,29.82,NNW,343,0.0,5.0,90,0.00,,,0.44,WeatherDisplay:10.37,2013-11-16 05:50:00,
2013-11-16 06:55:00,52.6,49.8,29.82,NNW,343,0.0,0.0,90,0.00,,,0.44,WeatherDisplay:10.37,2013-11-16 05:55:00,
2013-11-16 07:00:00,52.7,49.8,29.82,NNW,343,0.0,0.0,90,0.00,,,0.44,WeatherDisplay:10.37,2013-11-16 06:00:00,
2013-11-16 07:05:00,52.8,50.2,29.82,NNW,343,0.0,0.0,91,0.00,,,0.44,Wunderground v.1.15,2013-11-16 06:05:00,
2013-11-16 07:11:00,52.9,50.3,29.82,NNW,343,0.0,0.0,91,0.00,,,0.44,Wunderground v.1.15,2013-11-16 06:11:00,
2013-11-16 07:20:00,53.0,50.4,29.82,NNW,343,0.0,0.0,91,0.00,,,0.44,WeatherDisplay:10.37,2013-11-16 06:20:00,
2013-11-16 07:25:00,53.1,50.5,29.83,NNW,343,0.0,5.0,91,0.00,,,0.44,WeatherDisplay:10.37,2013-11-16 06:25:00,
2013-11-16 07:30:00,53.2,50.6,29.83,NNW,343,0.0,0.0,91,0.00,,,0.44,WeatherDisplay:10.37,2013-11-16 06:30:00,
2013-11-16 07:35:00,53.3,50.7,29.83,NNW,343,0.0,0.0,91,0.00,,,0.44,WeatherDisplay:10.37,2013-11-16 06:35:00,
2013-11-16 07:40:00,53.4,50.8,29.83,NNW,343,1.0,4.0,91,0.00,,,0.44,WeatherDisplay:10.37,2013-11-16 06:40:00,
2013-11-16 07:45:00,53.4,50.9,29.83,NNW,347,2.0,7.0,91,0.00,,,0.44,WeatherDisplay:10.37,2013-11-16 06:45:00,
2013-11-16 07:50:00,53.6,51.3,29.84,NNE,32,5.0,7.0,92,0.00,,,0.44,WeatherDisplay:10.37,2013-11-16 06:50:00,
2013-11-16 07:55:00,53.7,51.1,29.84,ENE,63,3.0,12.0,91,0.00,,,0.44,WeatherDisplay:10.37,2013-11-16 06:55:00,
2013-11-16 08:00:00,53.7,51.1,29.85,East,84,6.0,8.0,91,0.00,CLR,,0.44,WeatherDisplay:10.37,2013-11-16 07:00:00,
2013-11-16 08:05:00,53.6,51.0,29.85,East,93,2.0,9.0,91,0.00,CLR,,0.44,WeatherDisplay:10.37,2013-11-16 07:05:00,
2013-11-16 08:10:00,53.5,50.9,29.85,East,92,5.0,8.0,91,0.00,CLR,,0.44,WeatherDisplay:10.37,2013-11-16 07:10:00,
2013-11-16 08:15:00,53.4,50.8,29.86,East,92,2.0,9.0,91,0.00,CLR,,0.44,WeatherDisplay:10.37,2013-11-16 07:15:00,
2013-11-16 08:20:00,53.2,50.6,29.86,East,92,6.0,8.0,91,0.00,CLR,,0.44,WeatherDisplay:10.37,2013-11-16 07:20:00,
2013-11-16 08:25:00,53.0,50.4,29.87,East,90,5.0,8.0,91,0.00,CLR,,0.44,WeatherDisplay:10.37,2013-11-16 07:25:00,
2013-11-16 08:30:00,52.8,50.2,29.87,East,94,5.0,8.0,91,0.00,CLR,,0.44,WeatherDisplay:10.37,2013-11-16 07:30:00,
2013-11-16 08:35:00,52.8,50.5,29.87,East,100,5.0,8.0,92,0.00,CLR,,0.44,WeatherDisplay:10.37,2013-11-16 07:35:00,
2013-11-16 08:40:00,52.9,50.6,29.88,ESE,102,3.0,8.0,92,0.00,CLR,,0.44,WeatherDisplay:10.37,2013-11-16 07:40:00,
2013-11-16 08:45:00,53.0,50.7,29.89,East,89,2.0,6.0,92,0.00,CLR,,0.44,WeatherDisplay:10.37,2013-11-16 07:45:00,
2013-11-16 08:50:00,53.2,50.9,29.89,East,79,1.0,6.0,92,0.00,CLR,,0.44,WeatherDisplay:10.37,2013-11-16 07:50:00,
2013-11-16 08:55:00,53.3,51.0,29.89,ENE,78,0.0,5.0,92,0.00,CLR,,0.44,WeatherDisplay:10.37,2013-11-16 07:55:00,
2013-11-16 09:00:00,53.4,51.1,29.90,ENE,78,0.0,5.0,92,0.00,CLR,,0.44,WeatherDisplay:10.37,2013-11-16 08:00:00,
2013-11-16 09:05:00,53.6,51.3,29.90,ENE,78,2.0,5.0,92,0.00,CLR,,0.44,WeatherDisplay:10.37,2013-11-16 08:05:00,
2013-11-16 09:15:00,53.8,51.5,29.90,ENE,78,3.0,5.0,92,0.00,CLR,,0.44,WeatherDisplay:10.37,2013-11-16 08:15:00,
2013-11-16 09:30:00,54.4,52.1,29.91,ENE,78,2.0,6.0,92,0.00,CLR,,0.44,WeatherDisplay:10.37,2013-11-16 08:30:00,
2013-11-16 09:35:00,55.1,53.1,29.91,ENE,78,2.0,2.0,93,0.00,,,0.44,Wunderground v.1.15,2013-11-16 08:35:00,
2013-11-16 09:40:00,55.8,53.5,29.91,ENE,78,1.0,4.0,92,0.00,,,0.44,Wunderground v.1.15,2013-11-16 08:40:00,
2013-11-16 09:46:00,56.4,54.1,29.92,ENE,78,1.0,1.0,92,0.00,,,0.44,Wunderground v.1.15,2013-11-16 08:46:00,
2013-11-16 09:55:00,56.9,54.3,29.92,ENE,78,0.0,4.0,91,0.00,CLR,,0.44,WeatherDisplay:10.37,2013-11-16 08:55:00,
2013-11-16 10:00:00,57.3,54.4,29.92,East,92,1.0,7.0,90,0.00,CLR,,0.44,WeatherDisplay:10.37,2013-11-16 09:00:00,
2013-11-16 10:05:00,57.2,54.0,29.92,ESE,107,1.0,7.0,89,0.00,CLR,,0.44,WeatherDisplay:10.37,2013-11-16 09:05:00,
2013-11-16 10:10:00,57.2,53.7,29.92,ESE,112,1.0,5.0,88,0.00,CLR,,0.44,WeatherDisplay:10.37,2013-11-16 09:10:00,
2013-11-16 10:15:00,57.2,53.7,29.92,ESE,108,3.0,8.0,88,0.00,CLR,,0.44,WeatherDisplay:10.37,2013-11-16 09:15:00,
2013-11-16 10:20:00,57.3,53.5,29.92,ESE,104,2.0,7.0,87,0.00,CLR,,0.44,WeatherDisplay:10.37,2013-11-16 09:20:00,
2013-11-16 10:25:00,57.5,53.7,29.92,ESE,103,3.0,7.0,87,0.00,CLR,,0.44,WeatherDisplay:10.37,2013-11-16 09:25:00,
2013-11-16 10:30:00,57.6,53.4,29.92,ESE,103,3.0,9.0,86,0.00,CLR,,0.44,WeatherDisplay:10.37,2013-11-16 09:30:00,
2013-11-16 10:35:00,57.6,53.1,29.92,East,97,5.0,9.0,85,0.00,CLR,,0.44,WeatherDisplay:10.37,2013-11-16 09:35:00,
2013-11-16 10:40:00,57.7,52.9,29.92,East,93,1.0,8.0,84,0.00,CLR,,0.44,WeatherDisplay:10.37,2013-11-16 09:40:00,
2013-11-16 10:45:00,57.9,52.7,29.92,East,92,1.0,7.0,83,0.00,CLR,,0.44,WeatherDisplay:10.37,2013-11-16 09:45:00,
2013-11-16 10:50:00,58.0,52.9,29.93,East,96,1.0,7.0,83,0.00,CLR,,0.44,WeatherDisplay:10.37,2013-11-16 09:50:00,
2013-11-16 10:55:00,58.1,53.0,29.93,East,97,0.0,8.0,83,0.00,CLR,,0.44,WeatherDisplay:10.37,2013-11-16 09:55:00,
2013-11-16 11:00:00,58.2,53.1,29.93,East,99,1.0,10.0,83,0.00,CLR,,0.44,WeatherDisplay:10.37,2013-11-16 10:00:00,
2013-11-16 11:05:00,58.2,52.7,29.94,ESE,106,1.0,10.0,82,0.00,CLR,,0.44,WeatherDisplay:10.37,2013-11-16 10:05:00,
2013-11-16 11:10:00,58.0,52.2,29.94,ESE,104,1.0,8.0,81,0.00,CLR,,0.44,WeatherDisplay:10.37,2013-11-16 10:10:00,
2013-11-16 11:15:00,57.5,51.4,29.94,East,99,6.0,10.0,80,0.00,CLR,,0.44,WeatherDisplay:10.37,2013-11-16 10:15:00,
2013-11-16 11:20:00,57.2,50.7,29.94,East,96,3.0,9.0,79,0.00,CLR,,0.44,WeatherDisplay:10.37,2013-11-16 10:20:00,
2013-11-16 11:25:00,57.0,50.5,29.94,East,90,5.0,12.0,79,0.00,CLR,,0.44,WeatherDisplay:10.37,2013-11-16 10:25:00,
2013-11-16 11:30:00,56.9,50.5,29.94,East,83,3.0,8.0,79,0.00,CLR,,0.44,WeatherDisplay:10.37,2013-11-16 10:30:00,
2013-11-16 11:35:00,56.8,50.0,29.94,East,84,4.0,7.0,78,0.00,,,0.44,Wunderground v.1.15,2013-11-16 10:35:00,
2013-11-16 11:40:00,56.7,49.9,29.94,ENE,71,4.0,7.0,78,0.00,,,0.44,Wunderground v.1.15,2013-11-16 10:40:00,
2013-11-16 11:46:00,56.6,49.8,29.94,ENE,77,2.0,5.0,78,0.00,,,0.44,Wunderground v.1.15,2013-11-16 10:46:00,
2013-11-16 11:55:00,56.4,50.3,29.94,ENE,78,1.0,6.0,80,0.00,CLR,,0.44,WeatherDisplay:10.37,2013-11-16 10:55:00,
2013-11-16 12:00:00,56.2,50.2,29.94,ENE,77,3.0,6.0,80,0.00,CLR,,0.44,WeatherDisplay:10.37,2013-11-16 11:00:00,
2013-11-16 12:05:00,56.1,50.3,29.94,ENE,73,2.0,8.0,81,0.00,CLR,,0.44,WeatherDisplay:10.37,2013-11-16 11:05:00,
2013-11-16 12:10:00,55.9,50.5,29.94,ENE,67,3.0,6.0,82,0.00,CLR,,0.44,WeatherDisplay:10.37,2013-11-16 11:10:00,
2013-11-16 12:15:00,55.7,50.7,29.94,ENE,64,2.0,6.0,83,0.00,CLR,,0.44,WeatherDisplay:10.37,2013-11-16 11:15:00,
2013-11-16 12:20:00,55.6,50.5,29.94,ENE,61,5.0,6.0,83,0.00,CLR,,0.44,WeatherDisplay:10.37,2013-11-16 11:20:00,
2013-11-16 12:25:00,55.4,50.6,29.94,ENE,63,3.0,7.0,84,0.00,CLR,,0.44,WeatherDisplay:10.37,2013-11-16 11:25:00,
2013-11-16 12:30:00,55.2,50.8,29.94,ENE,74,6.0,12.0,85,0.00,RA,,0.45,WeatherDisplay:10.37,2013-11-16 11:30:00,
2013-11-16 12:35:00,55.1,50.7,29.94,East,88,8.0,12.0,85,0.00,RA,,0.45,WeatherDisplay:10.37,2013-11-16 11:35:00,
2013-11-16 12:40:00,55.1,51.0,29.94,East,93,6.0,8.0,86,0.01,RA,,0.46,WeatherDisplay:10.37,2013-11-16 11:40:00,
2013-11-16 12:45:00,55.0,50.9,29.94,East,93,5.0,8.0,86,0.00,RA,,0.46,WeatherDisplay:10.37,2013-11-16 11:45:00,
2013-11-16 12:50:00,54.9,50.8,29.94,East,92,5.0,12.0,86,0.00,CLR,,0.46,WeatherDisplay:10.37,2013-11-16 11:50:00,
2013-11-16 12:55:00,54.8,51.0,29.94,East,84,3.0,7.0,87,0.01,RA,,0.47,WeatherDisplay:10.37,2013-11-16 11:55:00,
2013-11-16 13:02:00,54.8,51.0,29.94,ENE,70,5.0,8.0,87,0.00,RA,,0.47,WeatherDisplay:10.37,2013-11-16 12:02:00,
2013-11-16 13:11:00,54.9,51.4,29.94,ENE,65,4.0,5.0,88,0.04,,,0.47,Wunderground v.1.15,2013-11-16 12:11:00,
2013-11-16 13:17:00,54.9,51.4,29.95,ENE,65,5.0,7.0,88,0.01,RA,,0.47,WeatherDisplay:10.37,2013-11-16 12:17:00,
2013-11-16 13:25:00,54.8,51.6,29.94,ENE,62,5.0,7.0,89,0.00,CLR,,0.47,WeatherDisplay:10.37,2013-11-16 12:25:00,
2013-11-16 13:30:00,54.8,51.6,29.94,NE,54,6.0,8.0,89,0.00,CLR,,0.47,WeatherDisplay:10.37,2013-11-16 12:30:00,
2013-11-16 13:35:00,54.7,51.8,29.94,NE,36,5.0,6.0,90,0.00,,,0.48,Wunderground v.1.15,2013-11-16 12:35:00,
2013-11-16 13:40:00,54.6,51.7,29.94,NE,46,5.0,6.0,90,0.00,,,0.48,Wunderground v.1.15,2013-11-16 12:40:00,
2013-11-16 13:46:00,54.6,51.7,29.93,NE,44,6.0,7.0,90,0.00,,,0.48,Wunderground v.1.15,2013-11-16 12:46:00,
2013-11-16 13:55:00,54.6,51.7,29.93,NNE,32,7.0,10.0,90,0.00,CLR,,0.48,WeatherDisplay:10.37,2013-11-16 12:55:00,
2013-11-16 14:00:00,54.7,51.8,29.93,NNE,33,5.0,9.0,90,0.00,CLR,,0.48,WeatherDisplay:10.37,2013-11-16 13:00:00,
2013-11-16 14:05:00,54.6,51.7,29.93,NE,44,6.0,9.0,90,0.00,,,0.48,Wunderground v.1.15,2013-11-16 13:05:00,
2013-11-16 14:10:00,54.7,51.8,29.93,NE,46,6.0,9.0,90,0.00,,,0.48,Wunderground v.1.15,2013-11-16 13:10:00,
2013-11-16 14:16:00,54.8,51.9,29.93,NNE,31,5.0,5.0,90,0.00,,,0.48,Wunderground v.1.15,2013-11-16 13:16:00,
2013-11-16 14:21:00,54.9,52.0,29.93,NE,39,5.0,5.0,90,0.00,,,0.48,Wunderground v.1.15,2013-11-16 13:21:00,
2013-11-16 14:30:00,54.9,52.0,29.92,NE,34,5.0,12.0,90,0.00,CLR,,0.48,WeatherDisplay:10.37,2013-11-16 13:30:00,
2013-11-16 14:35:00,55.0,52.1,29.92,NE,40,5.0,8.0,90,0.00,CLR,,0.48,WeatherDisplay:10.37,2013-11-16 13:35:00,
2013-11-16 14:40:00,55.0,52.1,29.92,NE,42,3.0,8.0,90,0.00,CLR,,0.48,WeatherDisplay:10.37,2013-11-16 13:40:00,
2013-11-16 14:45:00,55.1,51.9,29.92,NE,42,5.0,9.0,89,0.00,CLR,,0.49,WeatherDisplay:10.37,2013-11-16 13:45:00,
2013-11-16 14:50:00,55.2,52.0,29.92,NE,48,5.0,12.0,89,0.01,RA,,0.49,WeatherDisplay:10.37,2013-11-16 13:50:00,
2013-11-16 14:55:00,55.3,52.1,29.92,NE,55,6.0,8.0,89,0.01,RA,,0.49,WeatherDisplay:10.37,2013-11-16 13:55:00,
2013-11-16 15:00:00,55.3,52.1,29.92,NE,54,0.0,8.0,89,0.00,CLR,,0.49,WeatherDisplay:10.37,2013-11-16 14:00:00,
2013-11-16 15:05:00,55.4,52.2,29.92,NE,51,2.0,10.0,89,0.00,CLR,,0.49,WeatherDisplay:10.37,2013-11-16 14:05:00,
2013-11-16 15:10:00,55.5,52.3,29.92,NE,55,2.0,7.0,89,0.00,CLR,,0.49,WeatherDisplay:10.37,2013-11-16 14:10:00,
2013-11-16 15:15:00,55.6,52.1,29.92,ENE,57,5.0,7.0,88,0.00,CLR,,0.49,WeatherDisplay:10.37,2013-11-16 14:15:00,
2013-11-16 15:20:00,55.7,52.2,29.92,ENE,61,3.0,8.0,88,0.00,CLR,,0.49,WeatherDisplay:10.37,2013-11-16 14:20:00,
2013-11-16 15:25:00,55.8,52.3,29.92,ENE,64,5.0,10.0,88,0.00,CLR,,0.49,WeatherDisplay:10.37,2013-11-16 14:25:00,
2013-11-16 15:30:00,55.8,52.3,29.92,ENE,65,5.0,13.0,88,0.00,CLR,,0.49,WeatherDisplay:10.37,2013-11-16 14:30:00,
2013-11-16 15:35:00,55.8,52.3,29.92,ENE,65,2.0,8.0,88,0.00,CLR,,0.49,WeatherDisplay:10.37,2013-11-16 14:35:00,
2013-11-16 15:40:00,55.9,52.4,29.92,ENE,62,2.0,7.0,88,0.00,CLR,,0.49,WeatherDisplay:10.37,2013-11-16 14:40:00,
2013-11-16 15:45:00,56.0,52.5,29.92,ENE,58,5.0,8.0,88,0.00,CLR,,0.49,WeatherDisplay:10.37,2013-11-16 14:45:00,
2013-11-16 15:50:00,56.0,52.5,29.92,ENE,62,6.0,11.0,88,0.00,CLR,,0.49,WeatherDisplay:10.37,2013-11-16 14:50:00,
2013-11-16 15:55:00,55.9,52.4,29.92,ENE,63,6.0,10.0,88,0.00,CLR,,0.49,WeatherDisplay:10.37,2013-11-16 14:55:00,
2013-11-16 16:00:00,55.9,52.4,29.91,NE,55,3.0,10.0,88,0.00,CLR,,0.49,WeatherDisplay:10.37,2013-11-16 15:00:00,
2013-11-16 16:05:00,55.9,52.4,29.92,ENE,58,3.0,8.0,88,0.00,CLR,,0.49,WeatherDisplay:10.37,2013-11-16 15:05:00,
2013-11-16 16:10:00,55.9,52.4,29.91,ENE,63,3.0,8.0,88,0.00,CLR,,0.49,WeatherDisplay:10.37,2013-11-16 15:10:00,
2013-11-16 16:15:00,55.9,52.4,29.92,NE,56,3.0,12.0,88,0.00,CLR,,0.49,WeatherDisplay:10.37,2013-11-16 15:15:00,
2013-11-16 16:20:00,55.9,52.4,29.92,NE,54,6.0,10.0,88,0.00,CLR,,0.49,WeatherDisplay:10.37,2013-11-16 15:20:00,
2013-11-16 16:25:00,55.9,52.4,29.92,NE,54,6.0,8.0,88,0.00,CLR,,0.49,WeatherDisplay:10.37,2013-11-16 15:25:00,
2013-11-16 16:30:00,55.9,52.7,29.91,NE,55,2.0,8.0,89,0.00,CLR,,0.49,WeatherDisplay:10.37,2013-11-16 15:30:00,
2013-11-16 16:35:00,55.9,52.7,29.92,NE,56,3.0,8.0,89,0.00,CLR,,0.49,WeatherDisplay:10.37,2013-11-16 15:35:00,
2013-11-16 16:40:00,55.9,52.7,29.92,NE,55,5.0,12.0,89,0.00,CLR,,0.49,WeatherDisplay:10.37,2013-11-16 15:40:00,
2013-11-16 16:45:00,55.9,52.7,29.92,NE,56,3.0,9.0,89,0.00,CLR,,0.49,WeatherDisplay:10.37,2013-11-16 15:45:00,
2013-11-16 16:50:00,56.0,52.8,29.91,ENE,60,2.0,7.0,89,0.00,CLR,,0.49,WeatherDisplay:10.37,2013-11-16 15:50:00,
2013-11-16 16:55:00,56.0,52.8,29.91,ENE,58,5.0,8.0,89,0.00,CLR,,0.49,WeatherDisplay:10.37,2013-11-16 15:55:00,
2013-11-16 17:00:00,56.0,52.8,29.92,NE,54,3.0,6.0,89,0.00,CLR,,0.49,WeatherDisplay:10.37,2013-11-16 16:00:00,
2013-11-16 17:05:00,55.9,52.7,29.92,NE,56,3.0,6.0,89,0.00,CLR,,0.49,WeatherDisplay:10.37,2013-11-16 16:05:00,
2013-11-16 17:10:00,55.9,52.7,29.92,ENE,59,3.0,7.0,89,0.00,CLR,,0.49,WeatherDisplay:10.37,2013-11-16 16:10:00,
2013-11-16 17:15:00,55.8,52.6,29.92,ENE,64,3.0,8.0,89,0.00,CLR,,0.49,WeatherDisplay:10.37,2013-11-16 16:15:00,
2013-11-16 17:20:00,55.8,52.6,29.92,ENE,65,1.0,6.0,89,0.00,CLR,,0.49,WeatherDisplay:10.37,2013-11-16 16:20:00,
2013-11-16 17:25:00,55.7,52.5,29.92,ENE,65,1.0,6.0,89,0.00,CLR,,0.49,WeatherDisplay:10.37,2013-11-16 16:25:00,
2013-11-16 17:30:00,55.7,52.5,29.92,ENE,65,0.0,5.0,89,0.00,CLR,,0.49,WeatherDisplay:10.37,2013-11-16 16:30:00,
2013-11-16 17:35:00,55.7,52.5,29.92,ENE,65,1.0,6.0,89,0.00,CLR,,0.49,WeatherDisplay:10.37,2013-11-16 16:35:00,
2013-11-16 17:40:00,55.6,52.4,29.93,ENE,65,0.0,3.0,89,0.00,CLR,,0.49,WeatherDisplay:10.37,2013-11-16 16:40:00,
2013-11-16 17:45:00,55.6,52.4,29.93,ENE,65,1.0,3.0,89,0.00,,,0.49,Wunderground v.1.15,2013-11-16 16:45:00,
2013-11-16 17:51:00,55.6,52.4,29.93,ENE,65,1.0,3.0,89,0.00,,,0.49,Wunderground v.1.15,2013-11-16 16:51:00,
2013-11-16 17:57:00,55.6,52.4,29.93,ENE,65,0.0,4.0,89,0.00,CLR,,0.49,WeatherDisplay:10.37,2013-11-16 16:57:00,
2013-11-16 18:02:00,55.6,52.4,29.93,ENE,65,0.0,0.0,89,0.00,,,0.49,WeatherDisplay:10.37,2013-11-16 17:02:00,
2013-11-16 18:12:00,55.5,52.3,29.94,ENE,65,0.0,0.0,89,0.00,,,0.49,WeatherDisplay:10.37,2013-11-16 17:12:00,
2013-11-16 18:21:00,55.5,52.3,29.93,ENE,65,0.0,0.0,89,0.00,,,0.49,Wunderground v.1.15,2013-11-16 17:21:00,
2013-11-16 18:27:00,55.5,52.3,29.93,ENE,65,0.0,4.0,89,0.00,,,0.49,WeatherDisplay:10.37,2013-11-16 17:27:00,
2013-11-16 18:33:00,55.5,52.3,29.93,ENE,65,0.0,3.0,89,0.00,,,0.49,WeatherDisplay:10.37,2013-11-16 17:33:00,
2013-11-16 18:41:00,55.5,52.3,29.94,ENE,65,0.0,0.0,89,0.00,,,0.49,Wunderground v.1.15,2013-11-16 17:41:00,
2013-11-16 18:47:00,55.5,52.3,29.94,ENE,65,0.0,0.0,89,0.00,,,0.49,WeatherDisplay:10.37,2013-11-16 17:47:00,
2013-11-16 18:53:00,55.5,52.3,29.94,ENE,65,0.0,0.0,89,0.00,,,0.50,WeatherDisplay:10.37,2013-11-16 17:53:00,
2013-11-16 19:02:00,55.5,52.3,29.94,ENE,65,0.0,3.0,89,0.00,RA,,0.50,WeatherDisplay:10.37,2013-11-16 18:02:00,
2013-11-16 19:07:00,55.4,52.2,29.94,ENE,66,3.0,5.0,89,0.00,RA,,0.50,WeatherDisplay:10.37,2013-11-16 18:07:00,
2013-11-16 19:17:00,55.2,52.0,29.94,ENE,67,3.0,7.0,89,0.00,,,0.50,WeatherDisplay:10.37,2013-11-16 18:17:00,
2013-11-16 19:25:00,55.0,52.1,29.94,ENE,66,2.0,6.0,90,0.00,,,0.50,WeatherDisplay:10.37,2013-11-16 18:25:00,
2013-11-16 19:35:00,55.0,52.1,29.94,NE,42,5.0,7.0,90,0.00,,,0.50,WeatherDisplay:10.37,2013-11-16 18:35:00,
2013-11-16 19:40:00,54.9,52.0,29.94,NE,40,6.0,8.0,90,0.00,,,0.50,WeatherDisplay:10.37,2013-11-16 18:40:00,
2013-11-16 19:46:00,54.9,52.0,29.94,NE,50,4.0,4.0,90,0.00,,,0.50,Wunderground v.1.15,2013-11-16 18:46:00,
2013-11-16 19:52:00,54.9,52.0,29.94,NE,50,5.0,8.0,90,0.00,,,0.50,WeatherDisplay:10.37,2013-11-16 18:52:00,
2013-11-16 20:02:00,54.8,52.2,29.94,NE,52,3.0,7.0,91,0.00,,,0.50,WeatherDisplay:10.37,2013-11-16 19:02:00,
2013-11-16 20:11:00,54.9,52.3,29.95,NE,53,4.0,5.0,91,0.20,,,0.53,Wunderground v.1.15,2013-11-16 19:11:00,
2013-11-16 20:17:00,54.9,52.3,29.95,ENE,59,3.0,10.0,91,0.00,RA,,0.54,WeatherDisplay:10.37,2013-11-16 19:17:00,
2013-11-16 20:22:00,54.9,52.3,29.95,ENE,69,6.0,10.0,91,0.00,RA,,0.56,WeatherDisplay:10.37,2013-11-16 19:22:00,
2013-11-16 20:27:00,54.8,52.2,29.95,ENE,69,8.0,12.0,91,0.04,RA,,0.57,WeatherDisplay:10.37,2013-11-16 19:27:00,
2013-11-16 20:35:00,54.6,52.3,29.95,ENE,70,5.0,12.0,92,0.00,RA,,0.58,WeatherDisplay:10.37,2013-11-16 19:35:00,
2013-11-16 20:41:00,54.6,52.3,29.95,ENE,63,5.0,6.0,92,0.05,,,0.58,Wunderground v.1.15,2013-11-16 19:41:00,
2013-11-16 20:47:00,54.5,52.2,29.95,ENE,59,5.0,8.0,92,0.00,,,0.58,WeatherDisplay:10.37,2013-11-16 19:47:00,
2013-11-16 20:55:00,54.4,52.1,29.95,NE,56,3.0,10.0,92,0.00,,,0.58,WeatherDisplay:10.37,2013-11-16 19:55:00,
2013-11-16 21:01:00,54.5,52.2,29.95,ENE,58,5.0,8.0,92,0.00,,,0.58,WeatherDisplay:10.37,2013-11-16 20:01:00,
2013-11-16 21:10:00,54.4,52.1,29.95,ENE,75,5.0,5.0,92,0.00,,,0.59,Wunderground v.1.15,2013-11-16 20:10:00,
2013-11-16 21:16:00,54.4,52.1,29.96,ENE,74,5.0,7.0,92,0.00,RA,,0.60,WeatherDisplay:10.37,2013-11-16 20:16:00,
2013-11-16 21:25:00,54.4,52.1,29.96,ENE,67,5.0,8.0,92,0.00,RA,,0.61,WeatherDisplay:10.37,2013-11-16 20:25:00,
2013-11-16 21:35:00,54.3,52.0,29.95,ENE,71,4.0,5.0,92,0.06,,,0.62,Wunderground v.1.15,2013-11-16 20:35:00,
2013-11-16 21:41:00,54.3,52.0,29.95,ENE,66,5.0,10.0,92,0.00,,,0.62,WeatherDisplay:10.37,2013-11-16 20:41:00,
2013-11-16 21:46:00,54.2,51.9,29.95,ENE,63,4.0,4.0,92,0.00,,,0.62,Wunderground v.1.15,2013-11-16 20:46:00,
2013-11-16 21:55:00,54.2,52.2,29.96,ENE,75,2.0,7.0,93,0.00,,,0.62,WeatherDisplay:10.37,2013-11-16 20:55:00,
2013-11-16 22:00:00,54.3,52.3,29.96,ENE,77,1.0,6.0,93,0.00,RA,,0.63,WeatherDisplay:10.37,2013-11-16 21:00:00,
2013-11-16 22:05:00,54.3,52.4,29.96,ENE,78,0.0,3.0,93,0.01,RA,,0.63,WeatherDisplay:10.37,2013-11-16 21:05:00,
2013-11-16 22:10:00,54.4,52.4,29.96,ENE,78,1.0,5.0,93,0.04,,,0.64,Wunderground v.1.15,2013-11-16 21:10:00,
2013-11-16 22:16:00,54.4,52.4,29.96,ENE,72,5.0,8.0,93,0.01,RA,,0.64,WeatherDisplay:10.37,2013-11-16 21:16:00,
2013-11-16 22:21:00,54.3,52.3,29.96,ENE,71,3.0,4.0,93,0.04,,,0.64,Wunderground v.1.15,2013-11-16 21:21:00,
2013-11-16 22:30:00,54.2,52.2,29.96,ENE,64,3.0,7.0,93,0.00,,,0.64,WeatherDisplay:10.37,2013-11-16 21:30:00,
2013-11-16 22:40:00,54.1,52.1,29.96,ENE,65,3.0,7.0,93,0.00,,,0.64,WeatherDisplay:10.37,2013-11-16 21:40:00,
2013-11-16 22:50:00,54.0,52.0,29.96,ENE,70,6.0,10.0,93,0.00,,,0.64,WeatherDisplay:10.37,2013-11-16 21:50:00,
2013-11-16 23:00:00,53.9,51.9,29.96,ENE,74,5.0,8.0,93,0.00,,,0.64,WeatherDisplay:10.37,2013-11-16 22:00:00,
2013-11-16 23:05:00,53.9,51.9,29.96,ENE,65,4.0,4.0,93,0.00,,,0.64,Wunderground v.1.15,2013-11-16 22:05:00,
2013-11-16 23:10:00,53.8,51.8,29.96,ENE,65,4.0,4.0,93,0.00,,,0.65,Wunderground v.1.15,2013-11-16 22:10:00,
2013-11-16 23:20:00,53.8,51.8,29.96,ENE,76,0.0,7.0,93,0.00,,,0.65,WeatherDisplay:10.37,2013-11-16 22:20:00,
2013-11-16 23:25:00,53.9,51.9,29.96,ENE,77,2.0,6.0,93,0.00,,,0.65,WeatherDisplay:10.37,2013-11-16 22:25:00,
2013-11-16 23:30:00,53.8,51.8,29.96,ENE,77,2.0,6.0,93,0.00,,,0.65,WeatherDisplay:10.37,2013-11-16 22:30:00,
2013-11-16 23:35:00,53.7,51.7,29.96,ENE,77,2.0,6.0,93,0.00,,,0.65,WeatherDisplay:10.37,2013-11-16 22:35:00,
2013-11-16 23:40:00,53.7,51.7,29.96,ENE,77,1.0,4.0,93,0.00,,,0.65,WeatherDisplay:10.37,2013-11-16 22:40:00,
2013-11-16 23:50:00,53.6,51.6,29.95,ENE,77,0.0,1.0,93,0.00,CLR,,0.65,WeatherDisplay:10.37,2013-11-16 22:50:00,
2013-11-16 23:55:00,53.6,51.6,29.95,ENE,77,0.0,0.0,93,0.00,,,0.65,WeatherDisplay:10.37,2013-11-16 22:55:00,